Weather History for Lumberton, NC

Change the Weather History Date:

Saturday, April 5, 2014

  Actual Average Record
Temperature  
Mean Temperature 68 °F 59 °F  
Max Temperature 77 °F 72 °F 83 °F (2005)
Min Temperature 59 °F 47 °F 30 °F (2004)
Degree Days  
Heating Degree Days 0 7  
Month to date heating degree days 5 36  
Since 1 July heating degree days 2813 2612  
Cooling Degree Days 3 1  
Month to date cooling degree days 16 5  
Year to date cooling degree days 18 18  
Growing Degree Days 19 (Base 50)    
Moisture  
Dew Point 50 °F    
Average Humidity 57    
Maximum Humidity 78    
Minimum Humidity 35    
Precipitation  
Precipitation 0.00 in 0.10 in 3.73 in (2008)
Month to date precipitation 0.00 0.56  
Year to date precipitation 9.49 9.76  
Sea Level Pressure  
Sea Level Pressure 29.92 in    
Wind  
Wind Speed 9 mph (West)    
Max Wind Speed 17 mph    
Max Gust Speed 22 mph    
Visibility 10 miles    
Events      
T = Trace of Precipitation, MM = Missing Value Source: NWS Daily Summary

Daily Weather History Graph

Daily Weather History Graph

Search for Another Location

Airport:

Trip Planner

Search our weather history database for the weather conditions in past years. The results will help you decide how hot, cold, wet, or windy it might be!

Date:

Astronomy

Apr. 05, 2014 Rise Set
Actual Time 6:57 AM EDT 7:40 PM EDT
Civil Twilight 6:32 AM EDT 8:05 PM EDT
Nautical Twilight 6:02 AM EDT 8:36 PM EDT
Astronomical Twilight 5:31 AM EDT 9:06 PM EDT
Moon 11:12 AM EDT (4/5) 12:40 AM EDT (4/5)
Length of Visible Light 13h 33m
Length of Day
12h 42m
Waxing Crescent, 34% of the Moon is Illuminated
Apr 5
Waxing Crescent
Apr 7
First Quarter
Apr 15
Full
Apr 22
Last Quarter
Apr 29
New

Hourly Weather History & Observations

Time (EDT) Temp. Dew Point Humidity Pressure Visibility Wind Dir Wind Speed Gust Speed Precip Events Conditions
12:54 AM 72.0 °F 55.9 °F 57% 29.85 in 10.0 mi SW 9.2 mph - N/A   Clear
1:54 AM 70.0 °F 55.9 °F 61% 29.86 in 10.0 mi SW 9.2 mph - N/A   Clear
2:54 AM 69.1 °F 55.9 °F 63% 29.86 in 10.0 mi SW 11.5 mph - N/A   Partly Cloudy
3:54 AM 66.0 °F 55.0 °F 68% 29.86 in 10.0 mi WSW 9.2 mph - N/A   Clear
4:54 AM 66.0 °F 55.9 °F 70% 29.87 in 10.0 mi SW 8.1 mph - N/A   Overcast
5:54 AM 63.0 °F 55.0 °F 75% 29.88 in 10.0 mi SW 6.9 mph - N/A   Mostly Cloudy
6:54 AM 63.0 °F 54.0 °F 72% 29.89 in 10.0 mi WSW 8.1 mph - N/A   Partly Cloudy
7:54 AM 62.1 °F 55.9 °F 80% 29.92 in 10.0 mi WSW 4.6 mph - N/A   Clear
8:54 AM 64.9 °F 55.0 °F 70% 29.93 in 10.0 mi West 10.4 mph 19.6 mph N/A   Clear
9:54 AM 68.0 °F 54.0 °F 61% 29.94 in 10.0 mi West 11.5 mph - N/A   Clear
10:54 AM 70.0 °F 54.0 °F 57% 29.94 in 10.0 mi West 9.2 mph - N/A   Clear
11:54 AM 72.0 °F 53.1 °F 51% 29.95 in 10.0 mi WSW 4.6 mph - N/A   Partly Cloudy
12:54 PM 73.0 °F 52.0 °F 48% 29.95 in 10.0 mi West 9.2 mph - N/A   Clear
1:54 PM 73.9 °F 48.9 °F 41% 29.93 in 10.0 mi SSW 5.8 mph 16.1 mph N/A   Clear
2:54 PM 75.9 °F 48.9 °F 38% 29.92 in 10.0 mi WNW 11.5 mph - N/A   Clear
3:54 PM 77.0 °F 50.0 °F 39% 29.90 in 10.0 mi WNW 10.4 mph - N/A   Clear
4:54 PM 75.9 °F 51.1 °F 42% 29.91 in 10.0 mi WNW 9.2 mph - N/A   Clear
5:54 PM 75.9 °F 46.9 °F 36% 29.91 in 10.0 mi North 6.9 mph - N/A   Clear
6:54 PM 73.0 °F 45.0 °F 37% 29.92 in 10.0 mi North 9.2 mph - N/A   Clear
7:54 PM 68.0 °F 45.0 °F 43% 29.94 in 10.0 mi North 6.9 mph - N/A   Clear
8:54 PM 66.0 °F 44.1 °F 45% 29.97 in 10.0 mi North 10.4 mph - N/A   Clear
9:54 PM 64.0 °F 41.0 °F 43% 30.00 in 10.0 mi NNE 9.2 mph - N/A   Clear
10:54 PM 61.0 °F 39.9 °F 46% 30.01 in 10.0 mi NNE 6.9 mph - N/A   Clear
11:54 PM 61.0 °F 36.0 °F 39% 30.03 in 10.0 mi NE 9.2 mph - N/A   Clear